Probability
0 0 0 0 0 0 0 0 0 1 2 7 15 19 19 14 7 2 0 4 8 8 8 11 14 14 11 7 5 5 4 2 0 1 2 4 5 5 3 3 3 2 0 0 0 0 0 0 0
0 0 0 0 0 0 0 1 2 2 4 12 22 27 24 17 9 2 0 3 8 10 10 12 14 16 14 10 8 7 6 5 3 2 3 3 3 4 3 2 2 2 0 0 0 0 0 0 0
0 0 0 0 0 0 0 1 5 9 13 22 32 34 26 15 8 2 0 3 7 11 13 14 15 18 17 15 12 11 10 8 7 6 4 3 2 3 3 3 2 1 0 0 0 0 0 0 1
0 0 0 0 0 0 0 2 10 22 31 36 38 35 24 11 5 3 3 5 7 9 12 16 19 20 19 18 16 14 12 11 10 9 7 5 3 3 4 4 3 1 1 1 1 1 0 0 1
0 0 0 0 0 1 1 5 18 34 44 45 42 36 24 12 6 5 6 8 8 8 9 16 23 24 22 21 19 17 14 13 12 10 10 8 5 4 4 4 4 3 2 2 2 1 1 1 1
0 0 0 0 0 1 3 11 26 40 44 41 38 33 24 14 9 7 8 9 9 9 11 15 21 24 26 27 25 21 18 16 13 11 11 9 7 6 5 5 4 3 2 2 1 1 1 1 2
0 0 0 0 0 2 6 16 29 38 37 32 27 24 20 16 11 8 9 10 10 10 12 11 12 15 21 25 25 23 19 15 12 11 11 10 9 8 6 5 4 2 1 1 0 0 0 1 2
0 0 0 0 1 3 9 21 32 35 33 27 22 21 21 21 18 14 12 12 11 10 8 6 4 5 8 12 17 19 16 13 11 11 11 10 7 6 5 4 3 1 0 0 0 0 0 0 1
0 0 0 0 2 6 14 26 37 40 37 33 30 29 28 27 26 22 17 13 11 8 6 3 3 3 4 6 10 12 12 11 9 8 9 7 4 3 4 5 5 3 2 2 2 1 1 0 0
0 0 1 2 5 11 19 31 42 44 41 39 40 39 36 34 32 27 21 15 11 9 7 5 4 6 8 8 9 10 10 8 5 4 4 3 1 1 3 6 7 6 5 4 4 4 3 2 1
0 1 2 4 9 14 20 31 39 41 35 35 41 43 40 36 33 29 23 18 14 12 10 8 7 8 8 7 7 8 8 6 3 1 1 1 1 1 2 3 5 5 4 3 3 4 4 3 2
1 2 3 5 10 14 21 29 35 34 28 29 36 40 39 36 33 28 24 22 20 18 14 10 8 7 7 6 6 6 6 6 4 2 1 2 2 1 1 1 1 2 2 2 1 2 3 3 2
1 3 4 5 7 14 25 32 33 30 28 29 34 37 38 37 34 29 26 25 25 23 18 15 12 11 11 11 9 8 8 7 6 5 4 3 3 1 1 0 0 0 1 1 1 1 1 2 2
1 3 4 4 6 15 27 32 32 31 32 33 34 35 37 38 36 32 29 27 27 26 23 21 18 15 15 14 13 12 10 9 8 7 6 5 5 4 2 0 0 0 0 0 0 0 0 1 1
1 2 2 2 4 13 23 27 27 30 35 36 34 34 36 37 36 35 32 28 25 24 23 22 19 15 12 11 11 11 10 10 9 9 9 8 7 7 4 1 0 1 1 0 0 0 0 0 0
0 1 1 1 2 8 15 19 22 28 34 35 34 35 35 34 33 32 30 26 21 19 17 17 16 11 7 6 6 8 10 10 10 11 11 10 8 8 6 3 2 2 2 1 0 0 0 0 0
0 0 0 0 0 3 8 15 21 28 31 33 33 32 31 30 27 25 24 21 16 13 13 13 10 7 4 3 4 6 9 11 11 11 11 9 8 7 6 4 3 3 2 1 0 0 0 0 0
0 0 0 0 0 2 7 15 23 28 31 34 33 30 28 26 23 20 19 16 12 11 11 9 6 3 3 3 5 6 9 10 9 8 8 8 7 6 5 3 3 3 2 1 1 1 1 0 0
0 0 0 0 0 2 7 14 22 29 33 35 33 28 26 26 22 19 17 15 12 9 8 6 3 1 1 3 5 5 6 7 5 5 5 5 5 5 4 3 3 3 2 2 2 2 2 1 0
0 0 0 0 1 3 6 11 18 25 29 32 29 25 25 26 22 18 17 15 13 9 6 4 2 0 0 2 3 3 3 4 3 3 2 2 2 3 2 1 1 2 2 2 2 3 2 1 0
0 0 0 0 1 2 4 8 13 18 22 24 24 24 25 25 21 18 17 15 11 8 6 4 3 1 0 0 1 1 1 2 2 1 1 0 0 1 1 0 0 0 0 1 1 1 1 1 0
0 0 0 0 1 1 2 4 9 14 17 20 23 24 25 23 19 17 15 13 10 8 6 4 3 2 1 0 0 0 0 1 1 0 0 0 0 0 0 0 0 0 0 0 0 0 0 0 0
0 0 0 0 0 0 0 1 6 13 16 18 22 23 22 19 16 14 13 12 10 8 6 4 3 3 1 0 0 0 0 0 1 1 1 0 0 0 0 0 0 0 0 0 0 0 0 0 0
0 0 0 0 0 0 0 0 4 10 14 17 20 20 19 16 14 13 13 12 11 9 6 5 4 3 2 1 0 0 0 1 3 4 3 1 0 0 0 0 0 0 0 0 0 0 0 0 0
0 0 0 0 0 0 0 0 2 5 10 14 18 19 18 15 15 16 15 14 12 9 6 5 4 3 3 2 1 0 0 1 4 5 4 2 1 0 0 0 0 0 0 0 0 0 0 0 0
0 0 0 0 0 0 0 0 1 3 7 12 16 19 18 16 16 15 14 12 11 9 6 5 4 3 3 3 2 1 0 1 4 5 5 3 2 1 0 0 0 0 0 0 0 0 0 0 0
0 0 0 0 0 0 0 0 0 2 7 11 14 16 16 15 14 12 10 10 8 7 5 3 3 2 2 2 2 2 2 2 3 4 4 3 2 1 0 0 0 0 0 0 0 0 0 0 0
0 0 0 0 0 0 0 0 1 3 7 11 13 13 12 12 11 9 7 7 6 4 3 1 1 1 1 1 1 2 2 3 3 3 3 3 2 1 0 0 0 0 0 0 0 0 0 0 0
0 0 0 0 0 0 0 0 1 3 7 10 10 9 8 9 9 7 6 5 4 3 2 1 0 0 0 0 0 1 1 2 3 3 3 3 2 1 0 0 0 0 0 0 0 0 0 0 0
0 0 0 0 0 0 0 0 1 3 6 8 8 6 6 7 7 7 6 5 4 3 2 1 0 0 0 0 0 0 0 1 3 3 3 3 1 0 0 0 0 0 0 0 0 0 0 0 0
Wind_Speed
5 4 1 3 6 4 3 5 3 1 6 7 12 14 11 8 5 7 4 12 15 12 9 12 14 15 15 14 14 14 14 13 13 13 13 12 12 11 11 11 10 9 9 9 9 9 9 8 8
3 2 3 5 5 1 6 4 2 5 12 13 13 13 12 9 9 10 7 11 14 12 8 11 15 15 15 14 14 14 13 13 12 12 12 11 11 10 9 9 9 9 8 8 8 7 7 7 6
3 0 4 4 3 5 4 1 9 12 12 9 9 8 7 6 7 6 9 14 13 11 8 11 16 15 15 14 14 14 13 13 12 11 11 10 10 9 8 8 8 7 7 7 6 6 5 5 4
2 4 4 3 4 7 5 3 7 13 9 9 11 9 6 4 5 11 15 15 13 10 8 11 15 15 14 14 14 13 13 12 12 11 10 9 8 7 7 6 6 6 5 5 5 4 4 3 3
4 4 3 2 5 6 5 6 3 9 8 10 13 10 6 6 14 17 15 14 14 9 7 10 14 14 14 14 13 13 12 12 11 10 9 8 7 6 6 5 5 5 4 4 3 3 2 2 1
4 4 3 3 6 5 2 4 12 15 13 11 12 10 4 5 12 13 14 12 12 11 8 8 14 15 14 14 13 12 11 11 10 9 8 7 6 5 5 4 4 3 3 3 2 1 1 0 2
4 3 2 3 4 4 2 2 8 13 10 6 8 9 5 5 8 12 13 12 10 10 8 6 7 10 12 13 12 11 11 10 9 8 7 6 5 5 4 4 4 3 2 2 2 2 2 2 2
5 3 2 3 2 3 3 3 7 11 9 5 6 10 8 8 9 13 12 11 10 8 7 6 5 5 6 7 11 11 10 9 8 7 6 5 4 3 3 3 4 4 3 3 3 3 3 3 3
3 4 2 4 2 2 0 6 5 7 10 5 5 8 12 14 13 14 12 9 7 7 5 6 5 5 5 5 7 8 9 8 6 5 5 4 1 0 1 2 4 4 4 4 4 4 3 3 3
4 3 7 5 3 2 1 6 7 8 10 9 11 12 14 13 13 14 13 10 7 6 5 4 5 5 4 4 4 2 3 3 3 2 2 1 1 1 1 2 3 3 3 4 5 4 3 3 2
5 6 5 4 2 4 3 5 5 12 9 11 17 17 14 13 12 12 11 9 8 7 6 4 5 5 4 3 3 2 1 2 2 2 2 1 1 1 1 1 2 2 2 2 3 2 1 2 2
3 5 4 3 0 3 4 5 7 6 9 12 15 16 14 13 11 11 10 8 7 7 6 4 4 4 4 3 2 2 2 1 1 1 2 1 1 1 1 1 1 1 1 1 1 1 2 2 2
4 5 3 1 5 7 12 11 11 10 12 14 15 15 14 14 11 10 9 8 7 6 5 4 4 4 4 3 2 2 2 2 2 1 1 1 1 0 0 1 1 1 1 1 1 1 1 1 2
5 4 2 1 5 6 13 8 8 10 13 14 14 12 12 12 12 10 9 8 6 6 5 4 4 4 4 3 2 2 2 2 2 1 1 1 1 1 0 1 1 1 1 1 1 1 1 1 1
2 1 2 1 5 6 11 8 7 12 14 14 13 12 11 10 10 10 9 7 6 6 5 5 5 4 4 4 3 2 2 3 2 1 2 2 1 1 1 0 1 1 1 1 1 1 1 0 1
2 3 0 4 3 5 9 6 8 11 14 13 12 12 11 9 9 9 9 8 6 6 5 4 5 4 4 3 3 2 2 3 2 2 2 2 2 1 1 0 1 1 1 1 0 0 1 1 1
2 2 2 4 2 4 7 8 10 11 13 13 12 12 11 9 8 7 8 8 6 6 5 5 5 4 3 3 3 3 3 3 2 2 2 2 2 2 1 1 1 1 1 1 1 0 0 0 1
3 2 3 5 4 4 6 7 12 13 14 13 12 11 10 10 8 7 7 7 6 6 6 5 5 4 3 2 3 3 4 3 3 2 2 3 2 3 2 2 2 2 2 1 1 1 1 0 0
4 3 4 6 4 5 8 11 13 13 12 12 11 11 10 9 7 7 6 7 7 6 6 5 4 3 3 2 2 2 2 2 2 2 3 3 3 3 3 2 2 2 2 2 2 1 1 1 1
4 5 6 5 3 6 7 6 9 12 14 14 14 12 11 9 7 6 6 5 6 6 5 4 4 3 2 2 1 1 2 2 1 2 3 4 4 4 3 3 2 2 2 3 2 1 1 1 0
6 6 5 3 1 5 8 2 4 5 6 8 10 11 11 12 11 8 7 6 5 5 5 4 4 3 3 2 2 3 3 2 2 3 2 3 3 3 3 3 3 3 3 2 2 1 1 0 1
6 6 5 4 4 2 5 4 4 6 6 8 9 10 11 10 9 8 7 6 6 5 5 4 4 4 3 3 3 4 3 2 1 1 1 2 4 4 4 4 4 3 3 2 2 2 1 1 0
6 4 2 2 4 3 1 4 3 5 6 8 10 11 11 10 9 8 7 7 6 5 5 4 5 4 4 4 4 4 3 2 1 2 3 3 3 4 4 4 3 3 3 3 3 2 2 0 0
3 3 5 5 5 1 3 3 3 3 7 9 10 11 11 12 10 8 6 6 5 5 5 5 5 4 4 4 4 4 4 4 4 3 3 2 2 3 4 4 3 3 3 3 2 2 2 1 0
4 6 4 5 4 3 2 3 3 4 5 11 13 12 11 11 11 9 8 7 6 6 5 5 5 4 4 4 4 4 4 4 4 3 2 2 2 2 3 3 3 2 2 2 2 2 2 2 1
2 8 7 4 3 3 2 1 2 1 2 5 9 11 11 10 9 9 8 7 7 6 5 5 5 4 4 4 3 3 4 3 2 2 2 2 1 1 2 3 3 3 3 3 3 2 2 2 2
2 2 7 7 2 1 2 1 1 3 6 7 10 11 10 10 10 9 8 6 6 6 5 5 5 4 3 3 3 3 3 3 3 2 2 1 1 1 2 3 3 3 3 3 3 2 2 2 2
5 6 5 6 4 1 3 3 4 4 6 7 9 10 9 9 9 8 6 6 5 5 5 4 5 4 3 3 3 3 3 3 3 3 3 2 2 2 3 3 3 4 4 4 3 2 2 2 2
2 3 5 4 5 5 3 5 4 8 9 11 10 9 10 9 9 8 6 6 6 6 5 4 4 4 4 3 3 3 2 3 3 2 2 2 2 3 3 3 3 4 4 4 4 3 3 3 2
3 4 6 5 3 4 4 5 2 6 7 10 10 9 9 8 8 7 7 7 6 6 4 4 4 4 3 3 3 2 2 2 2 2 2 3 3 3 3 4 4 4 5 4 4 3 3 3 3
Wind_Direction
301 291 67 53 52 45 275 253 213 109 56 70 89 94 90 72 103 127 117 127 128 129 132 131 128 126 126 124 120 118 114 112 108 104 101 98 96 95 96 97 97 97 96 95 93 92 91 89 89
299 317 57 60 82 29 278 244 155 116 123 112 84 82 78 73 83 105 118 129 127 126 127 130 128 127 127 127 125 123 120 118 114 110 107 104 101 99 100 101 101 100 98 97 97 96 94 91 88
294 18 83 77 129 189 244 233 121 112 115 103 86 62 68 90 100 108 131 131 122 120 123 131 129 128 129 129 128 127 125 123 120 116 112 109 106 104 103 103 103 104 103 101 100 98 95 91 87
39 45 53 80 244 233 223 239 129 118 88 73 98 74 58 37 98 123 131 126 119 117 121 129 129 129 129 130 130 129 129 128 126 123 120 116 113 112 110 109 108 108 108 108 106 102 95 88 79
63 74 56 320 263 258 232 223 165 110 93 89 96 94 65 44 107 124 127 125 120 116 116 126 129 130 131 132 132 132 132 131 130 129 127 124 121 119 120 120 119 118 118 115 111 108 98 74 35
52 70 91 264 275 291 285 150 108 99 108 101 96 102 86 95 116 126 126 120 121 122 118 122 128 130 132 133 133 133 132 131 130 130 131 133 132 132 135 137 137 139 140 140 136 133 137 22 331
114 104 195 241 285 302 273 100 110 114 109 108 122 106 112 105 117 121 119 116 116 119 117 117 127 130 133 134 134 133 133 132 132 132 133 137 142 149 155 156 159 166 175 182 189 212 247 274 298
147 97 308 286 265 276 285 87 92 104 105 112 112 124 142 145 124 115 113 112 114 116 120 123 120 123 127 132 137 137 136 135 135 133 135 140 146 162 177 182 192 197 207 218 227 242 260 278 288
110 75 265 249 218 260 349 98 78 70 103 94 82 110 133 137 125 117 114 111 114 118 121 127 125 126 129 134 140 139 140 140 135 132 131 127 111 128 218 240 225 222 227 236 242 248 263 273 281
113 161 236 226 184 152 116 109 123 106 94 91 94 104 124 130 125 123 125 125 125 128 127 121 125 129 132 138 124 124 130 123 114 110 113 108 100 359 358 298 267 249 247 258 257 254 263 267 271
170 204 244 271 204 148 122 82 82 120 115 138 134 132 129 124 119 121 126 129 130 129 126 122 126 125 125 114 125 117 112 119 118 119 118 104 84 25 14 0 309 295 284 287 296 294 278 260 248
238 257 242 277 30 113 114 101 80 102 132 135 130 130 124 119 121 124 124 122 121 118 122 119 122 121 122 119 124 132 132 135 137 135 121 114 87 45 10 341 309 314 298 281 285 289 277 271 260
239 263 280 71 84 95 91 93 103 102 115 122 121 118 118 117 113 112 115 115 115 115 116 118 120 123 123 118 118 116 131 136 132 108 104 111 100 54 332 311 336 326 303 281 298 298 290 285 290
229 222 226 174 112 100 100 96 100 122 124 122 120 116 117 119 118 116 112 109 116 115 119 116 102 106 107 103 97 99 102 101 91 77 70 83 80 52 18 335 338 331 314 293 279 284 284 304 320
211 201 324 226 127 128 103 74 111 136 131 125 123 120 118 118 120 122 123 122 123 122 110 107 106 93 96 97 100 97 99 98 86 75 65 58 58 58 55 316 334 331 329 333 337 356 342 315 347
8 80 75 278 145 156 109 128 148 147 136 133 135 134 128 122 124 125 122 123 120 112 104 95 101 94 91 94 90 91 94 96 88 74 56 47 49 56 74 49 335 317 346 1 345 24 8 358 16
24 138 192 274 231 149 119 149 164 157 145 146 147 144 137 132 125 122 121 124 122 115 107 96 91 92 90 82 81 89 87 84 79 71 65 45 38 39 51 47 6 3 21 8 306 97 145 82 41
235 191 204 229 241 143 128 147 160 161 156 155 154 151 148 146 140 134 127 124 117 105 96 89 79 75 79 77 72 68 66 67 63 60 58 56 46 44 49 44 25 23 31 23 28 36 44 100 67
223 228 239 244 222 147 149 155 168 166 161 162 163 162 160 150 139 132 126 120 110 98 94 88 82 65 74 78 80 78 70 62 52 50 51 48 42 41 45 42 32 27 33 27 40 55 50 23 47
251 249 255 273 230 143 142 162 173 173 175 173 170 168 160 144 138 136 128 121 115 113 103 92 87 75 68 78 100 114 112 88 75 49 37 36 39 36 48 41 29 26 31 36 38 50 48 312 30
260 223 229 216 79 92 115 110 179 177 159 162 163 165 160 158 156 150 136 128 119 111 107 96 79 67 58 65 82 81 69 57 40 35 31 19 34 39 42 44 44 36 40 36 30 40 67 313 310
258 237 208 199 135 184 143 173 227 172 157 166 165 165 164 156 150 146 139 132 125 117 109 98 84 70 57 63 92 102 110 108 98 75 53 30 35 38 41 45 45 39 38 32 19 38 26 113 315
228 234 179 180 136 93 55 131 254 156 168 181 175 166 159 149 149 147 142 134 123 118 113 102 86 69 52 54 78 89 87 97 92 72 61 38 21 25 31 36 37 33 27 24 22 12 4 28 192
201 50 32 46 73 79 246 155 247 209 197 181 179 167 159 149 143 136 129 122 117 116 109 102 91 73 59 60 69 87 93 90 86 70 56 34 16 11 16 29 30 26 22 18 12 10 5 357 4
83 84 36 7 20 253 265 131 231 238 196 176 174 166 156 149 147 146 144 139 135 129 119 107 97 81 69 68 65 77 92 92 95 89 68 54 30 10 359 17 23 19 17 17 17 23 13 16 25
170 135 152 183 212 271 346 161 265 273 136 137 147 146 145 147 147 148 150 149 143 133 124 114 104 91 77 74 70 71 80 89 90 85 85 72 45 345 359 21 23 18 20 25 20 17 13 29 27
134 141 158 133 131 85 293 251 296 80 96 116 130 139 147 149 147 148 149 149 145 133 125 120 112 98 82 81 81 75 75 82 81 69 64 57 22 7 18 22 21 16 19 24 23 17 6 22 21
141 146 97 111 138 229 287 256 218 177 148 140 141 146 145 143 143 140 140 142 134 123 117 113 109 103 92 83 82 85 70 75 79 71 55 38 20 21 19 21 27 24 18 19 25 7 4 26 13
74 77 102 114 143 155 226 258 227 186 167 156 159 154 150 153 150 145 140 134 126 119 118 116 109 105 95 84 78 75 63 60 63 57 39 33 27 27 31 31 31 30 23 18 22 14 23 27 18
143 163 144 146 199 169 179 256 307 149 147 148 151 148 146 149 146 143 139 136 133 128 126 124 119 118 117 107 95 85 70 56 48 33 23 30 31 31 39 44 41 38 30 22 23 18 23 26 24